Погода в Пхочхоне

Южная Корея     37°54′10″N   127°12′10″E
темп.,
°C
ветер,
м/с
пор.,
м/с
влажн.,
%
обл.,
%
осадки,
мм/ч
давл.,
гПа
погр.,
м
18 мая, вт
вт1800:00+11всв1197100 0.0 101011
03:00+10зсз0095100 0.0 101111
06:00+10вюв1193100 0.0 101111
09:00+15юз1179100 0.0 1012323
12:00+22з225036 0.0 1010929
15:00+23зсз23450 0.0 10091346
18:00+20з236876 0.0 1009366
21:00+14юз11810 0.0 101110
19 мая, ср
ср1900:00+12ю00745 0.0 101210
03:00+11юв11720 0.0 101210
06:00+11вюв11720 0.0 101311
09:00+19зюз11500 0.0 1013405
12:00+24з22330 0.0 1012979
15:00+24зсз44330 0.0 10121447
18:00+21з115711 0.0 1012228
21:00+15в1160100 0.0 101310
20 мая, чт
чт2000:00+14в1156100 0.0 101310
03:00+14всв1153100 0.0 101211
06:00+14в2154100 0.0 101211
09:00+17всв1161100 0.0 101146
12:00+23св2340100 0.0 1009441
15:00+22юв2651100 0.0 1007274
18:00+18вюв2559100 0.0 1006103
21:00+16вюв2360100 0.0 1006115
21 мая, пт
пт2100:00+13с1188100 0.5 100422
03:00+13ююв1195100 1.6 100228
06:00+12св1296100 0.9 100369
09:00+13ссв1197100 2.9 100395
12:00+13св1197100 1.6 1003118
15:00+13ссв1197100 2.6 100388
18:00+13ссв1297100 0.6 100461
21:00+12с1297100 1.3 100685
22 мая, сб
сб2200:00+11сз1197100 0.2 100744
03:00+11зюз1197100 0.2 100717
06:00+10зюз01987 0.0 100813
09:00+16зюз12773 0.0 1009431
12:00+20зсз36571 0.0 10081165
15:00+23зсз46510 0.0 10071285
18:00+20з2669100 0.0 1008544
21:00+14зюз118713 0.0 101012